{"data":{"norad_id":59194,"intl_designator":"2024-045S","name":"STARLINK-31542","alt_names":[],"object_type":"PAYLOAD","status":"ACTIVE","operator":null,"country":"US","launch_date":"2024-03-10","launch_site_code":"AFETR","launch_vehicle":null,"mission":null,"orbit_class":"UNKNOWN","rcs_meters":null,"size_class":null,"mass_kg":null,"dimensions":null,"purposes":["comms"],"wikipedia_slug":null,"has_3d_model":false,"image_url":null,"decayed_at":null,"tle_current":{"epoch":"2026-05-25T01:06:38.459808Z","epoch_age_seconds":74340,"freshness":"FRESH","line1":"1 59194U 24045S   26145.04627847  .00002267  00000+0  91889-4 0  9994","line2":"2 59194  43.0049  20.9359 0001610 288.9948  71.0729 15.27581162124847","mean_motion":15.27581162,"eccentricity":0.000161,"inclination_deg":43.0049,"raan_deg":20.9359,"arg_perigee_deg":288.9948,"mean_anomaly_deg":71.0729,"bstar":9.1889e-5,"rev_number":12484,"period_min":94.266677006848,"perigee_km":481.94096619456,"apogee_km":484.1502669971,"semimajor_km":6861.1826165958,"source":"CELESTRAK","updated_at":"2026-05-25T13:38:18.862180Z"}}}